Location: Heidgraben
(53.7081°N, 9.6576°E)
Time: 10:57:02
(UTC+00:00)

Meteor 2-3 Rocket - Pass Details

Date: 05 July 2020
Orbit: 843 x 884 km, 81.2° (Epoch: 05 August)

Event Time Altitude Azimuth Distance (km) Brightness Sun altitude
Exits shadow 23:21:01 19° 185° (S) 1,910 4.9 -13.6°
Maximum altitude 23:25:08 80° 100° (E) 881 3.8 -13.6°
Drops below altitude 10° 23:30:53 10° 15° (NNE) 2,528 7.5 -13.6°
Sets 23:33:20 0° 15° (NNE) 3,476 8.6 -13.6°
